Weather Roundup
Issued by NWS Chicago, IL

Home | Current Version | Previous Version | Text Only | Print | Product List | Glossary Off
Versions: 1 2 3 4 5 6 7 8 9 10 11 12 13 14 15 16 17 18 19 20 21 22 23 24 25 26 27 28 29 30 31 32 33 34 35 36 37 38 39 40 41 42 43 44 45 46 47 48 49 50

000
NZUS59 KLOT 161408
HRRLOT

CHICAGO AREA WEATHER ROUNDUP
NATIONAL WEATHER SERVICE CHICAGO/ROMEOVILLE IL
800 AM CST SAT DEC 16 2017

NOTE: "FAIR" INDICATES FEW OR NO CLOUDS BELOW 12,000 FEET WITH NO
SIGNIFICANT WEATHER AND/OR OBSTRUCTIONS TO VISIBILITY.

* THESE STATIONS ARE NOT UNDER NWS QUALITY CONTROL. THEY ALSO MAY NOT
  REPORT WEATHER SUCH AS PRECIPITATION OR FOG.

ILZ005-006-012>014-019>023-161500-
NORTHEAST ILLINOIS

CITY           SKY/WX    TMP DP  RH WIND       PRES   REMARKS
OHARE          CLOUDY    34  24  67 S9        29.85S WCI  27
MIDWAY         PTCLDY    35  25  66 S8        29.87S WCI  29
AURORA         CLEAR     29  23  78 S8        29.86R WCI  21
LANSING*       PTCLDY    31  26  80 SW8       29.89S WCI  23
JOLIET*        CLEAR     32  26  76 S6        29.88S WCI  27
WAUKEGAN       CLOUDY    34  25  69 W3        29.85R
DUPAGE AIRPORT CLEAR     30  25  81 S8        29.84S WCI  22
WHEELING       PTCLDY    35  25  66 SW5       29.87R WCI  31
KANKAKEE*      CLEAR     31  23  72 SW6       29.91S WCI  25
MORRIS*        CLEAR     31  24  74 S9        29.87R WCI  23
LEWIS AIRPORT* CLEAR     31  25  77 S8        29.87S WCI  24
NORTHERLY ISL    N/A     35  24  64 SW9         N/A  WCI  28
$$

WIZ051-052-058>065-066-070>072-161500-
SOUTHEAST WISCONSIN

CITY           SKY/WX    TMP DP  RH WIND       PRES   REMARKS
MILWAUKEE      CLOUDY    35  29  78 CALM      29.86R
KENOSHA*       CLOUDY    33  23  66 CALM      29.85R
RACINE*        CLOUDY    33  27  78 CALM      29.87R
BURLINGTON     CLOUDY    27  24  86 CALM      29.84S
WAUKESHA       CLOUDY    28  27  93 CALM      29.85S FOG
WEST BEND      CLOUDY    28  28 100 E3G21     29.86R
$$

INZ001>003-010>013-019-020-161500-
NORTHWEST INDIANA

CITY           SKY/WX    TMP DP  RH WIND       PRES   REMARKS
GARY*          PTCLDY    34  23  64 SW12      29.89F WCI  25
MICHIGAN CITY* NOT AVBL
RENSSELAER*    NOT AVBL
VALPARAISO     CLOUDY    33  25  72 S5        29.90S WCI  29
$$

LMZ740>746-161500-
SOUTHERN LAKE MICHIGAN

STATION/POSITION TIME  SKY/WX   TEMP WIND        PRES    VSBY
                                AIR  DIR/SP/G
                 (UTC)          (F)  (DEG/KT/KT) (MB)    (MI)
HARRISON CRIB    1340            37  200/ 14/ 16   N/A
BURNHAM HARBOR   1400            35  180/ 10/ 10   N/A
CALUMET HARBOR   1348            34  200/ 10/ 15 1010.9F
BURNS HARBOR     1340            35  210/ 10/ 16 1012.5R
MICHIGAN CITY    1340            36  190/ 14/ 16   N/A
$$

ABBREVIATIONS USED IN REMARKS
   TC - TEMPERATURE IN CELSIUS
  WCI - WIND CHILL INDEX
   HX - HEAT INDEX
  VSB - VISIBILITY
$$




USA.gov is the U.S. government's official web portal to all federal, state and local government web resources and services.